Mount Carmel, IL

6:07 PM CDT on May 26, 2017 (GMT -0500)
Mount Carmel Municipal

Weather History for KAJG - January, 2013

Change the Weather History Date:

Saturday, January 19, 2013

  Actual Average (KLWV) Record (KLWV)
Temperature  
Mean Temperature 46 °F -  
Max Temperature 55 °F 35 °F 63 °F (2006)
Min Temperature 37 °F 20 °F 3 °F (2003)
Degree Days  
Heating Degree Days 19    
Moisture  
Dew Point 34 °F    
Average Humidity 63    
Maximum Humidity 87    
Minimum Humidity 47    
Precipitation  
Precipitation 0.01 in - - ()
Sea Level Pressure  
Sea Level Pressure 30.07 in    
Wind  
Wind Speed 15 mph (SW)    
Max Wind Speed 26 mph    
Max Gust Speed 34 mph    
Visibility 10 miles    
Events      
Averages and records for this station are not official NWS values.
T = Trace of Precipitation, MM = Missing Value Source: NWS Daily Summary

Daily Weather History Graph

Daily Weather History Graph

Search for Another Location

Airport or City:

Trip Planner

Search our weather history database for the weather conditions in past years. The results will help you decide how hot, cold, wet, or windy it might be!

Date:

Astronomy

Jan. 19, 2013 Rise Set
Actual Time 7:05 AM CST 4:58 PM CST
Civil Twilight 6:36 AM CST 5:27 PM CST
Nautical Twilight 6:04 AM CST 5:59 PM CST
Astronomical Twilight 5:32 AM CST 6:31 PM CST
Moon 11:23 AM CST (1/19) 12:40 AM CST (1/19)
Length of Visible Light 10h 50m
Length of Day
9h 53m
First Quarter, 57% of the Moon is Illuminated
Jan 19
First Quarter
Jan 26
Full
Feb 3
Last Quarter
Feb 10
New
Feb 17
First Quarter

Hourly Weather History & Observations

Time (CST) Temp. Windchill Dew Point Humidity Pressure Visibility Wind Dir Wind Speed Gust Speed Precip Events Conditions
12:15 AM 39.2 °F 33.0 °F 28.4 °F 65% 30.20 in 10.0 mi SW 9.2 mph - N/A   Clear
12:35 AM 41.0 °F 33.1 °F 28.4 °F 61% 30.20 in 10.0 mi SW 15.0 mph - N/A   Clear
12:55 AM 41.0 °F 33.5 °F 28.4 °F 61% 30.20 in 10.0 mi SW 13.8 mph - N/A   Clear
1:15 AM 41.0 °F 33.1 °F 28.4 °F 61% 30.21 in 10.0 mi SW 15.0 mph 21.9 mph N/A   Clear
1:35 AM 41.0 °F 32.8 °F 28.4 °F 61% 30.21 in 10.0 mi SW 16.1 mph 20.7 mph N/A   Clear
1:55 AM 41.0 °F 33.9 °F 28.4 °F 61% 30.21 in 10.0 mi SW 12.7 mph 21.9 mph N/A   Clear
2:15 AM 39.2 °F 31.2 °F 30.2 °F 70% 30.21 in 10.0 mi SW 13.8 mph - N/A   Clear
2:35 AM 39.2 °F 32.0 °F 30.2 °F 70% 30.21 in 10.0 mi SW 11.5 mph - N/A   Clear
2:55 AM 37.4 °F 30.8 °F 30.2 °F 75% 30.20 in 10.0 mi SSW 9.2 mph - N/A   Clear
3:15 AM 37.4 °F 30.3 °F 30.2 °F 75% 30.20 in 10.0 mi SSW 10.4 mph - N/A   Clear
3:35 AM 37.4 °F 29.3 °F 30.2 °F 75% 30.19 in 10.0 mi SSW 12.7 mph - N/A   Clear
3:55 AM 37.4 °F 29.8 °F 30.2 °F 75% 30.18 in 10.0 mi SSW 11.5 mph - N/A   Clear
4:15 AM 37.4 °F 30.3 °F 30.2 °F 75% 30.19 in 10.0 mi SSW 10.4 mph - N/A   Clear
4:35 AM 37.4 °F 28.9 °F 30.2 °F 75% 30.18 in 10.0 mi SSW 13.8 mph - N/A   Clear
4:55 AM 39.2 °F 31.6 °F 30.2 °F 70% 30.18 in 10.0 mi SSW 12.7 mph - N/A   Clear
5:15 AM 39.2 °F 31.6 °F 30.2 °F 70% 30.18 in 10.0 mi SSW 12.7 mph - N/A   Clear
5:35 AM 37.4 °F 28.9 °F 30.2 °F 75% 30.17 in 10.0 mi SSW 13.8 mph - N/A   Clear
5:55 AM 39.2 °F 30.8 °F 30.2 °F 70% 30.17 in 10.0 mi SSW 15.0 mph - N/A   Clear
6:55 AM 39.2 °F 30.2 °F 30.2 °F 70% 30.17 in 10.0 mi SSW 17.3 mph 20.7 mph N/A   Clear
7:15 AM 39.2 °F 30.5 °F 30.2 °F 70% 30.16 in 10.0 mi SSW 16.1 mph - N/A   Clear
8:15 AM 41.0 °F 31.9 °F 32.0 °F 70% 30.15 in 10.0 mi SSW 19.6 mph 26.5 mph N/A   Clear
8:35 AM 42.8 °F 33.5 °F 32.0 °F 66% 30.14 in 10.0 mi SSW 23.0 mph 26.5 mph N/A   Clear
9:35 AM 44.6 °F 35.9 °F 32.0 °F 61% 30.13 in 10.0 mi SSW 23.0 mph 29.9 mph N/A   Clear
9:55 AM 44.6 °F 35.9 °F 32.0 °F 61% 30.13 in 10.0 mi SSW 23.0 mph 29.9 mph N/A   Clear
10:15 AM 46.4 °F 38.5 °F 32.0 °F 57% 30.12 in 10.0 mi SSW 21.9 mph 32.2 mph N/A   Clear
10:35 AM 46.4 °F 38.1 °F 33.8 °F 62% 30.10 in 10.0 mi SSW 24.2 mph 32.2 mph N/A   Clear
11:15 AM 50.0 °F - 33.8 °F 54% 30.08 in 10.0 mi SSW 21.9 mph 29.9 mph N/A   Clear
11:35 AM 50.0 °F - 35.6 °F 58% 30.06 in 10.0 mi SSW 20.7 mph 33.4 mph N/A   Clear
11:55 AM 51.8 °F - 33.8 °F 50% 30.05 in 10.0 mi SSW 20.7 mph - N/A   Clear
12:15 PM 53.6 °F - 35.6 °F 51% 30.03 in 10.0 mi SSW 21.9 mph 28.8 mph N/A   Clear
12:35 PM 53.6 °F - 33.8 °F 47% 30.02 in 10.0 mi SSW 25.3 mph 29.9 mph N/A   Clear
12:55 PM 53.6 °F - 33.8 °F 47% 30.00 in 10.0 mi SW 26.5 mph 34.5 mph N/A   Clear
1:35 PM 55.4 °F - 35.6 °F 47% 29.98 in 10.0 mi SSW 24.2 mph 33.4 mph N/A   Clear
1:55 PM 55.4 °F - 35.6 °F 47% 29.97 in 10.0 mi SSW 25.3 mph 29.9 mph N/A   Clear
2:15 PM 55.4 °F - 35.6 °F 47% 29.97 in 10.0 mi SSW 18.4 mph - 0.01 in   Clear
2:35 PM 55.4 °F - 35.6 °F 47% 29.96 in 10.0 mi SSW 21.9 mph - 0.01 in   Clear
2:55 PM 55.4 °F - 35.6 °F 47% 29.95 in 10.0 mi SSW 21.9 mph 29.9 mph 0.01 in   Clear
3:15 PM 55.4 °F - 35.6 °F 47% 29.94 in 10.0 mi SSW 23.0 mph 29.9 mph N/A   Clear
3:35 PM 55.4 °F - 35.6 °F 47% 29.94 in 10.0 mi SSW 23.0 mph 33.4 mph N/A   Clear
3:55 PM 55.4 °F - 35.6 °F 47% 29.95 in 10.0 mi SW 21.9 mph 31.1 mph N/A   Clear
4:15 PM 53.6 °F - 35.6 °F 51% 29.96 in 10.0 mi SW 16.1 mph - N/A   Clear
4:35 PM 53.6 °F - 37.4 °F 54% 29.97 in 10.0 mi SSW 10.4 mph 13.8 mph N/A   Clear
4:55 PM 51.8 °F - 37.4 °F 58% 29.97 in 10.0 mi SSW 11.5 mph - N/A   Clear
5:15 PM 50.0 °F - 37.4 °F 62% 29.97 in 10.0 mi SSW 10.4 mph - N/A   Clear
5:35 PM 50.0 °F - 35.6 °F 58% 29.98 in 10.0 mi SW 12.7 mph - N/A   Clear
5:55 PM 50.0 °F - 35.6 °F 58% 29.97 in 10.0 mi SW 16.1 mph - N/A   Clear
6:15 PM 50.0 °F - 35.6 °F 58% 29.98 in 10.0 mi SW 16.1 mph - N/A   Clear
6:35 PM 50.0 °F - 37.4 °F 62% 29.99 in 10.0 mi SW 17.3 mph 26.5 mph N/A   Clear
6:55 PM 50.0 °F - 37.4 °F 62% 29.99 in 10.0 mi SW 16.1 mph 24.2 mph N/A   Clear
7:15 PM 50.0 °F - 37.4 °F 62% 29.99 in 10.0 mi SW 17.3 mph - N/A   Clear
7:35 PM 50.0 °F - 37.4 °F 62% 29.99 in 10.0 mi SW 18.4 mph 25.3 mph N/A   Clear
7:55 PM 50.0 °F - 37.4 °F 62% 29.99 in 10.0 mi SW 20.7 mph 26.5 mph N/A   Clear
8:15 PM 50.0 °F - 37.4 °F 62% 30.00 in 10.0 mi SW 18.4 mph - N/A   Clear
8:35 PM 48.2 °F - 37.4 °F 66% 30.01 in 10.0 mi WSW 17.3 mph 24.2 mph N/A   Clear
8:55 PM 48.2 °F - 39.2 °F 71% 30.02 in 10.0 mi SW 17.3 mph - N/A   Clear
9:15 PM 46.4 °F 40.4 °F 39.2 °F 76% 30.03 in 10.0 mi WSW 13.8 mph 17.3 mph N/A   Clear
9:35 PM 46.4 °F 41.5 °F 39.2 °F 76% 30.04 in 10.0 mi SW 10.4 mph - N/A   Clear
9:55 PM 46.4 °F 41.5 °F 39.2 °F 76% 30.04 in 10.0 mi SW 10.4 mph - N/A   Clear
10:15 PM 46.4 °F 41.1 °F 39.2 °F 76% 30.04 in 10.0 mi SW 11.5 mph - N/A   Clear
10:35 PM 46.4 °F 41.5 °F 39.2 °F 76% 30.04 in 10.0 mi WSW 10.4 mph - N/A   Clear
10:55 PM 46.4 °F 42.9 °F 39.2 °F 76% 30.04 in 10.0 mi WSW 6.9 mph - N/A   Clear
11:15 PM 42.8 °F 38.0 °F 37.4 °F 81% 30.05 in 10.0 mi WSW 8.1 mph - N/A   Clear
11:35 PM 42.8 °F 37.0 °F 37.4 °F 81% 30.05 in 10.0 mi WSW 10.4 mph - N/A   Clear
11:55 PM 41.0 °F 34.7 °F 37.4 °F 87% 30.06 in 10.0 mi WSW 10.4 mph - N/A   Clear